Flag for U.S.A. Weather past 2 weeks in Concord, California, U.S.A.

Now
45 °F

Clear.


Feels Like: 44 °F
Forecast: 44 / 65 °F
Wind: 3 mph from South

Location: Buchanan Field

Current Time: Mar 1, 2015 at 4:34:00 AM

Latest Report: Mar 1, 2015 at 3:53 AM


Visibility: 10 mi

Pressure: 29.90 "Hg

Humidity: 82%

Dew point: 40 °F

Location of ConcordLocation

Historic Weather in Concord — Graph

°F

Concord temperature yesterday

Maximum temperature yesterday: 63 °F (at 3:53 PM)
Minimum temperature yesterday: 45 °F (at 6:53 AM)
Average temperature yesterday: 54 °F

Past Weeks' High & Low Weather Summary

 TemperatureHumidityPressure
High74 °F (Feb 14, 1:53 PM)97% (Feb 19, 7:53 AM)30.32 "Hg (Feb 19, 7:53 AM)
Low36 °F (Feb 24, 4:53 AM)9% (Feb 24, 11:53 AM)29.68 "Hg (Feb 28, 3:53 AM)
Average56 °F65%29.99 "Hg
* Reported Feb 14 2:53 AM — Mar 1 2:53 AM, Concord, Weather by CustomWeather, © 2015

Note: Actual official high and low records may vary slightly from our data, if they occured in-between our weather recording intervals... More about our weather records

Advertising

Concord weather history for previous 24 hours

 ConditionsComfort  
Time TempWeatherWind HumidityBarometerVisibility
2:53 AM
Sun, Mar 1
45 °FClear.7 mph82%29.90 "Hg10 mi
1:53 AM47 °FOvercast.No wind80%29.91 "Hg10 mi
12:53 AM46 °FClear.3 mph79%29.90 "Hg10 mi
11:53 PM
Sat, Feb 28
48 °FClear.3 mph77%29.89 "Hg10 mi
10:53 PM49 °FClear.No wind74%29.88 "Hg10 mi
9:53 PM51 °FPassing clouds.3 mph71%29.86 "Hg10 mi
8:53 PM53 °FPassing clouds.No wind66%29.84 "Hg10 mi
7:53 PM53 °FPartly cloudy.5 mph69%29.83 "Hg10 mi
6:53 PM56 °FOvercast.6 mph62%29.81 "Hg10 mi
5:53 PM58 °FBroken clouds.7 mph58%29.79 "Hg10 mi
4:53 PM60 °FScattered clouds.7 mph49%29.76 "Hg10 mi
3:53 PM63 °FScattered clouds.12 mph45%29.75 "Hg10 mi
2:53 PM62 °FSunny.7 mph46%29.75 "Hg10 mi
1:53 PM60 °FSunny.7 mph49%29.75 "Hg10 mi
12:53 PM61 °FPassing clouds.6 mph48%29.75 "Hg10 mi
11:53 AM61 °FBroken clouds.5 mph48%29.76 "Hg10 mi
10:53 AM58 °FScattered clouds.No wind54%29.76 "Hg10 mi
9:53 AM55 °FScattered clouds.No wind59%29.75 "Hg10 mi
8:53 AM53 °FScattered clouds.6 mph69%29.74 "Hg10 mi
7:53 AM48 °FScattered clouds.5 mph80%29.72 "Hg10 mi
6:53 AM45 °FScattered clouds.3 mph82%29.71 "Hg10 mi
5:53 AM46 °FClear.7 mph83%29.70 "Hg10 mi
4:53 AM46 °FClear.8 mph79%29.69 "Hg10 mi
Weather by CustomWeather, © 2015

See weather overviewHow to use our weather pages